| time (UTC) | temp F | wind direction | speed knots | gust knots | rain 1hr in | rain 24hr in | rain mn in | humidity % | barometer mb |
| 20260502123059 | 46 | 93 | 5.2 | 7.0 | 0.00 | 0.00 | 0.00 | 42 | 1018.8 |
| 20260502121604 | 45 | 94 | 4.3 | 7.0 | 0.00 | 0.00 | 0.00 | 43 | 1018.8 |
| 20260502120113 | 45 | 80 | 2.6 | 7.0 | 0.00 | 0.00 | 0.00 | 44 | 1018.8 |
| 20260502114609 | 45 | 101 | 4.3 | 7.0 | 0.00 | 0.00 | 0.00 | 44 | 1018.8 |
| 20260502113113 | 46 | 107 | 5.2 | 7.0 | 0.00 | 0.00 | 0.00 | 44 | 1018.8 |
| 20260502111603 | 45 | 98 | 3.5 | 4.3 | 0.00 | 0.00 | 0.00 | 44 | 1018.9 |
| 20260502110104 | 45 | 76 | 2.6 | 7.0 | 0.00 | 0.00 | 0.00 | 44 | 1019.0 |
| 20260502104552 | 46 | 92 | 2.6 | 6.1 | 0.00 | 0.00 | 0.00 | 43 | 1019.1 |
| 20260502103111 | 47 | 146 | 1.7 | 6.1 | 0.00 | 0.00 | 0.00 | 42 | 1018.9 |
| 20260502101557 | 47 | 96 | 3.5 | 6.1 | 0.00 | 0.00 | 0.00 | 42 | 1018.8 |
| 20260502090107 | 47 | 94 | 5.2 | 7.8 | 0.00 | 0.00 | 0.00 | 43 | 1018.8 |
| 20260502070035 | 47 | 94 | 4.3 | 7.8 | 0.00 | 0.00 | 0.00 | 42 | 1019.4 |
| 20260502064537 | 47 | 83 | 4.3 | 7.0 | 0.00 | 0.00 | 0.00 | 43 | 1019.5 |
| 20260502063039 | 47 | 123 | 2.6 | 5.2 | 0.00 | 0.00 | 0.00 | 44 | 1019.4 |
| 20260502061529 | 47 | 73 | 4.3 | 8.7 | 0.00 | 0.00 | 0.00 | 44 | 1019.3 |
| 20260502060029 | 47 | 94 | 3.5 | 6.1 | 0.00 | 0.00 | 0.00 | 46 | 1019.2 |
| 20260502054538 | 47 | 95 | 4.3 | 7.0 | 0.00 | 0.00 | 0.00 | 47 | 1019.2 |
| 20260502053029 | 47 | 101 | 4.3 | 8.7 | 0.00 | 0.00 | 0.00 | 46 | 1019.1 |
| 20260502051526 | 47 | 94 | 5.2 | 7.8 | 0.00 | 0.00 | 0.00 | 47 | 1019.1 |
| 20260502050028 | 47 | 98 | 5.2 | 7.0 | 0.00 | 0.00 | 0.00 | 48 | 1019.1 |
| 20260502044528 | 48 | 90 | 3.5 | 6.1 | 0.00 | 0.00 | 0.00 | 50 | 1019.1 |
| 20260502043029 | 48 | 111 | 5.2 | 7.0 | 0.00 | 0.00 | 0.00 | 48 | 1019.1 |
| 20260502041532 | 49 | 145 | 1.7 | 3.5 | 0.00 | 0.00 | 0.00 | 48 | 1018.9 |
| 20260502040031 | 49 | 153 | 0.9 | 3.5 | 0.00 | 0.00 | 0.00 | 49 | 1018.7 |
| 20260502034529 | 50 | 115 | 2.6 | 5.2 | 0.00 | 0.00 | 0.00 | 47 | 1018.5 |
| 20260502033037 | 50 | 80 | 1.7 | 7.8 | 0.00 | 0.00 | 0.00 | 47 | 1018.3 |
| 20260502031528 | 50 | 88 | 1.7 | 3.5 | 0.00 | 0.00 | 0.00 | 47 | 1018.2 |
| 20260502030024 | 52 | 19 | 0.9 | 2.6 | 0.00 | 0.00 | 0.00 | 44 | 1018.1 |
| 20260502024522 | 53 | 360 | 1.7 | 5.2 | 0.00 | 0.00 | 0.00 | 43 | 1017.8 |
| 20260502023022 | 55 | 61 | 1.7 | 3.5 | 0.00 | 0.00 | 0.00 | 40 | 1017.7 |
| 20260502021521 | 57 | 349 | 0.9 | 2.6 | 0.00 | 0.00 | 0.00 | 36 | 1017.7 |
| 20260502020024 | 58 | 26 | 1.7 | 6.1 | 0.00 | 0.00 | 0.00 | 35 | 1017.7 |
| 20260502014524 | 58 | 309 | 3.5 | 7.0 | 0.00 | 0.00 | 0.00 | 34 | 1017.5 |
| 20260502013023 | 59 | 330 | 2.6 | 7.0 | 0.00 | 0.00 | 0.00 | 35 | 1017.4 |
| 20260502011523 | 59 | 286 | 4.3 | 7.8 | 0.00 | 0.00 | 0.00 | 35 | 1017.3 |
| 20260502010025 | 59 | 336 | 4.3 | 7.0 | 0.00 | 0.00 | 0.00 | 35 | 1017.3 |
| 20260502004523 | 59 | 324 | 5.2 | 9.6 | 0.00 | 0.00 | 0.00 | 35 | 1017.3 |
| 20260502003027 | 59 | 311 | 4.3 | 12.2 | 0.00 | 0.00 | 0.00 | 35 | 1017.3 |
| 20260502001525 | 60 | 5 | 4.3 | 10.4 | 0.00 | 0.00 | 0.00 | 34 | 1017.4 |
| 20260502000021 | 60 | 302 | 6.1 | 12.2 | 0.00 | 0.00 | 0.00 | 34 | 1017.4 |
| 20260501234520 | 59 | 24 | 4.3 | 9.6 | 0.00 | 0.00 | 0.00 | 33 | 1017.5 |
| 20260501233020 | 59 | 355 | 6.1 | 12.2 | 0.00 | 0.00 | 0.00 | 33 | 1017.6 |
| 20260501231519 | 60 | 313 | 5.2 | 10.4 | 0.00 | 0.00 | 0.00 | 33 | 1017.6 |
| 20260501230019 | 59 | 310 | 3.5 | 9.6 | 0.00 | 0.00 | 0.00 | 33 | 1017.6 |
| 20260501224521 | 59 | 268 | 5.2 | 13.0 | 0.00 | 0.00 | 0.00 | 31 | 1017.8 |
| 20260501223033 | 60 | 275 | 3.5 | 9.6 | 0.00 | 0.00 | 0.00 | 31 | 1017.8 |
| 20260501221518 | 60 | 21 | 0.0 | 8.7 | 0.00 | 0.00 | 0.00 | 30 | 1017.9 |
| 20260501220018 | 60 | 187 | 3.5 | 6.1 | 0.00 | 0.00 | 0.00 | 31 | 1017.9 |
| 20260501214527 | 59 | 315 | 3.5 | 7.8 | 0.00 | 0.00 | 0.00 | 31 | 1018.3 |
| 20260501213018 | 59 | 18 | 2.6 | 10.4 | 0.00 | 0.00 | 0.00 | 31 | 1018.5 |
| 20260501211517 | 59 | 13 | 5.2 | 13.9 | 0.00 | 0.00 | 0.00 | 31 | 1018.6 |
| 20260501210018 | 59 | 32 | 3.5 | 10.4 | 0.00 | 0.00 | 0.00 | 29 | 1018.7 |
| 20260501204517 | 58 | 278 | 0.9 | 8.7 | 0.00 | 0.00 | 0.00 | 32 | 1018.7 |
| 20260501203025 | 59 | 277 | 1.7 | 5.2 | 0.00 | 0.00 | 0.00 | 31 | 1018.7 |
| 20260501201515 | 58 | 322 | 6.1 | 10.4 | 0.00 | 0.00 | 0.00 | 31 | 1018.6 |
| 20260501200015 | 57 | 331 | 5.2 | 13.0 | 0.00 | 0.00 | 0.00 | 32 | 1018.7 |
| 20260501194515 | 58 | 294 | 4.3 | 7.0 | 0.00 | 0.00 | 0.00 | 30 | 1018.8 |
| 20260501193014 | 60 | 260 | 3.5 | 7.8 | 0.00 | 0.00 | 0.00 | 29 | 1018.9 |
| 20260501191511 | 60 | 164 | 0.9 | 6.1 | 0.00 | 0.00 | 0.00 | 31 | 1019.1 |
| 20260501190012 | 56 | 223 | 4.3 | 9.6 | 0.00 | 0.00 | 0.00 | 33 | 1019.3 |
| 20260501184510 | 59 | 215 | 2.6 | 7.8 | 0.00 | 0.00 | 0.00 | 34 | 1019.3 |
| 20260501183007 | 56 | 248 | 0.9 | 5.2 | 0.00 | 0.00 | 0.00 | 36 | 1019.5 |
| 20260501181506 | 55 | 229 | 0.0 | 7.0 | 0.00 | 0.00 | 0.00 | 36 | 1019.7 |
| 20260501180009 | 54 | 286 | 3.5 | 7.0 | 0.00 | 0.00 | 0.00 | 38 | 1019.8 |
| 20260501174505 | 54 | 302 | 2.6 | 7.0 | 0.00 | 0.00 | 0.00 | 38 | 1019.8 |
| 20260501173006 | 53 | 258 | 1.7 | 7.8 | 0.00 | 0.00 | 0.00 | 39 | 1020.0 |
| 20260501171507 | 55 | 297 | 4.3 | 7.0 | 0.00 | 0.00 | 0.00 | 37 | 1020.0 |
| 20260501170002 | 56 | 198 | 1.7 | 4.3 | 0.00 | 0.00 | 0.00 | 37 | 1020.0 |
| 20260501164502 | 56 | 59 | 2.6 | 7.0 | 0.00 | 0.00 | 0.00 | 37 | 1020.0 |
| 20260501163103 | 55 | 217 | 2.6 | 4.3 | 0.00 | 0.00 | 0.00 | 37 | 1020.1 |
| 20260501161559 | 55 | 185 | 1.7 | 3.5 | 0.00 | 0.00 | 0.00 | 36 | 1020.0 |
| 20260501160056 | 54 | 185 | 0.9 | 3.5 | 0.00 | 0.00 | 0.00 | 39 | 1020.1 |
| 20260501154555 | 53 | 185 | 0.9 | 3.5 | 0.00 | 0.00 | 0.00 | 42 | 1020.0 |
| 20260501153103 | 51 | 158 | 1.7 | 3.5 | 0.00 | 0.00 | 0.00 | 42 | 1020.0 |
| 20260501151557 | 49 | 111 | 0.9 | 2.6 | 0.00 | 0.00 | 0.00 | 46 | 1020.0 |
| 20260501150044 | 47 | 88 | 0.9 | 4.3 | 0.00 | 0.00 | 0.00 | 50 | 1020.0 |
| 20260501144542 | 45 | 89 | 2.6 | 7.0 | 0.00 | 0.00 | 0.00 | 53 | 1020.0 |
| 20260501143041 | 43 | 69 | 2.6 | 6.1 | 0.00 | 0.00 | 0.00 | 54 | 1019.9 |